Tracking 31027 objects as of 18-Jul-2025
HD Live streaming from Space Station
objects crossing your sky now

STARLINK-5683

Track STARLINK-5683 now!
10-day predictions
STARLINK-5683 is classified as:


NORAD ID: 55452
Int'l Code: 2023-015D
Perigee: 565.4 km
Apogee: 567.0 km
Inclination: 43.0 °
Period: 95.8 minutes
Semi major axis: 6937 km
RCS: Unknown
Launch date: February 2, 2023
Source: United States (US)
Launch site: AIR FORCE EASTERN TEST RANGE (AFETR)
Your satellite tracking list
Your tracking list is empty




NASA's NSSDC Master Catalog

Two Line Element Set (TLE):
1 55452U 23015D   25198.24862198 -.00001763  00000-0 -11545-3 0  9995
2 55452  43.0001 165.6505 0001110 276.7866  83.2850 15.02536390135339
Source of the keplerian elements: AFSPC